[[[{"header":{"parameterUnit":"kt","parameterCategory":2,"dx":1,"dy":1,"la1":30.253999710083008,"la2":30.299108505249023,"lo1":-89.0895004272461,"lo2":-89.04439544677734,"nx":28,"ny":28,"refTime":"2022-10-18T21:00:00:Z","depth":"0","parameterNumber":2,"parameterNumberName":"U-component_of_CURRENTS"},"data":[0.3357,0.3333,0.3379,0.3352,0.3407,0.3416,0.3471,0.354,0.3736,0.3993,0.4259,0.4567,0.5177,0.5611,0.564,0.5462,0.4995,0.4854,0.4723,0.5144,0.5149,0.5153,0.5078,0.5107,0.5107,0.4055,0.4048,0.4043,0.3464,0.3496,0.3552,0.3601,0.3637,0.3749,0.3888,0.3913,0.3997,0.4325,0.4516,0.4935,0.5129,0.5342,0.5549,0.5424,0.5086,0.5308,0.4952,0.48,0.5288,0.5217,0.5278,0.5278,0.5278,0.5278,0.5278,0.5278,0.3648,0.3648,0.3721,0.3784,0.3863,0.3947,0.397,0.4145,0.4274,0.4483,0.4803,0.5014,0.5349,0.5549,0.5521,0.5529,0.5371,0.541,0.5374,0.5146,0.4907,0.5381,0.552,0.5521,0.5522,0.5523,0.5523,0,0.3767,0.3822,0.3875,0.3948,0.4018,0.4101,0.4228,0.43,0.4537,0.4683,0.4934,0.5095,0.5409,0.5489,0.5616,0.5619,0.5336,0.553,0.5503,0.5196,0.4921,0.4737,0.5182,0.5336,0.5336,0.5335,0.5335,0.5335,0.3889,0.3921,0.4048,0.4083,0.4131,0.4219,0.4285,0.445,0.4545,0.4846,0.4917,0.5164,0.5312,0.5523,0.5553,0.5608,0.5409,0.5527,0.5367,0.5327,0.5278,0.5034,0.4869,0.5335,0.5335,0.5335,0.5335,0,0.3945,0.4035,0.4096,0.4227,0.4261,0.4302,0.4437,0.4509,0.4649,0.4778,0.4825,0.5034,0.5211,0.5265,0.5369,0.5341,0.5304,0.5418,0.5325,0.5318,0.5282,0.5234,0.5139,0.4961,0.5502,0.5504,0.5505,0,0.404,0.4078,0.4207,0.423,0.4292,0.4395,0.4466,0.4536,0.4662,0.4751,0.4828,0.4941,0.4989,0.51,0.5097,0.5206,0.523,0.5163,0.517,0.5076,0.5069,0.5047,0.4994,0.5147,0.5145,0.5144,0.5143,0,0.4064,0.4166,0.4221,0.4252,0.4363,0.4405,0.4464,0.4558,0.4611,0.4718,0.4782,0.4862,0.4929,0.4967,0.5017,0.4953,0.5149,0.5057,0.5104,0.5106,0.5055,0.5048,0.5155,0.5141,0.514,0.514,0.5139,0,0.4113,0.4171,0.4235,0.4338,0.4359,0.4394,0.4489,0.4533,0.4619,0.4654,0.4714,0.4733,0.4807,0.4746,0.4867,0.4814,0.4836,0.4847,0.4854,0.4868,0.4815,0.4898,0.501,0.4973,0.4908,0.4905,0.4903,0,0.412,0.4189,0.4233,0.4292,0.4333,0.438,0.4425,0.4475,0.4512,0.4567,0.4583,0.4625,0.4588,0.461,0.4644,0.4677,0.4728,0.4633,0.4752,0.4757,0.478,0.4895,0.481,0.4973,0.4874,0.4877,0.4879,0,0.4115,0.4209,0.4211,0.425,0.4307,0.4331,0.4376,0.4426,0.4469,0.4477,0.4536,0.4537,0.4549,0.4551,0.4539,0.4572,0.4679,0.4553,0.4554,0.464,0.4827,0.485,0.4873,0.4661,0.4664,0.4667,0.4855,0,0.4164,0.4198,0.4212,0.426,0.4288,0.4314,0.4347,0.4366,0.4376,0.4393,0.4435,0.4421,0.4446,0.4436,0.4418,0.4488,0.4498,0.446,0.4442,0.4496,0.4569,0.4588,0.4349,0.4347,0.4346,0.4346,0,0,0.4144,0.4181,0.4205,0.4235,0.4263,0.4278,0.4307,0.4315,0.4328,0.4348,0.4329,0.4354,0.4335,0.4376,0.4385,0.4365,0.4405,0.4367,0.4454,0.4466,0.4477,0.455,0.4569,0.4344,0.4344,0.4343,0.4343,0,0.4157,0.4179,0.4198,0.4222,0.4261,0.4272,0.4283,0.4301,0.4306,0.4318,0.4311,0.4322,0.4308,0.4317,0.4317,0.4348,0.4365,0.4342,0.4391,0.4443,0.4456,0.4468,0.4543,0.4561,0.434,0.4341,0.4341,0,0.4156,0.4184,0.4195,0.4231,0.4245,0.4268,0.4263,0.4282,0.43,0.4272,0.428,0.4275,0.4264,0.4274,0.4277,0.4261,0.4333,0.4276,0.428,0.4299,0.4352,0.4366,0.4379,0.4217,0.4217,0.4217,0,0,0.4163,0.4184,0.4218,0.4235,0.4248,0.4261,0.4269,0.4275,0.4277,0.4273,0.4264,0.4255,0.4258,0.4254,0.4248,0.4251,0.4278,0.4263,0.4269,0.4274,0.4295,0.4348,0.4362,0.4216,0.4216,0.4216,0,0,0.4161,0.4203,0.4214,0.4235,0.4256,0.4267,0.4273,0.4276,0.4267,0.4266,0.4249,0.4245,0.4256,0.4236,0.4229,0.4246,0.4219,0.422,0.4265,0.4272,0.4277,0.4307,0.4209,0,0,0,0,0,0.4193,0.4203,0.4213,0.4221,0.4246,0.4267,0.4267,0.4271,0.4267,0.4267,0.4258,0.4244,0.4231,0.4225,0.4221,0.4243,0.4207,0.4209,0.421,0.427,0.4277,0.4283,0,0,0,0,0,0,0.4197,0.4206,0.4213,0.4228,0.4235,0.4266,0.4257,0.4256,0.4267,0.4266,0.4246,0.4243,0.4229,0.4225,0.4222,0.4244,0.421,0.4208,0.4209,0.4211,0.4272,0.4278,0.4283,0,0,0,0,0,0.42,0.4207,0.4251,0.4227,0.4233,0.4245,0.4256,0.4255,0.4253,0.4247,0.4244,0.426,0.4229,0.4226,0.4223,0.4247,0.4212,0.4211,0.4209,0.421,0.4211,0.4275,0,0,0,0,0,0,0.4202,0.4187,0.4251,0.4253,0.423,0.4242,0.4245,0.4255,0.4232,0.4232,0.4259,0.4259,0.4229,0.4226,0.4224,0.4249,0.4214,0.4213,0.4212,0.421,0.4211,0.4211,0,0,0,0,0,0,0.4184,0.4188,0.4251,0.4255,0.4256,0.424,0.4243,0.4231,0.4231,0.4243,0.4244,0.4259,0.4236,0.4227,0.4225,0.4206,0.4215,0.4214,0.4213,0.4213,0.421,0.4211,0,0,0,0,0,0,0.4185,0.4188,0.4253,0.4255,0.4256,0.4265,0.4228,0.4249,0.4249,0.4242,0.4249,0.425,0.4237,0.4235,0.4226,0.4207,0.4206,0.4215,0.4214,0.4214,0.4213,0,0,0,0,0,0,0,0.4186,0.4167,0.4254,0.4255,0.4255,0.427,0.4269,0.4268,0.4249,0.4249,0.4249,0.4249,0.4222,0.422,0.4219,0.4209,0,0,0.4215,0.4215,0,0,0,0,0,0,0,0,0.4165,0.4166,0.4254,0.4255,0.4256,0.427,0.4269,0.4268,0.4249,0.4249,0.4249,0.4249,0.4221,0.422,0.4219,0,0,0,0,0,0,0,0,0,0,0,0,0,0,0,0.4254,0.4255,0,0.427,0.4269,0.4269,0.4249,0.4249,0.4249,0.4249,0.4221,0.422,0.4219,0,0,0,0,0,0,0,0,0,0,0,0,0,0,0,0,0,0,0,0,0,0,0,0,0,0,0,0,0,0,0,0,0,0,0,0,0,0,0,0,0,0,0,0,0,0,0,0,0,0,0,0,0,0,0,0,0,0,0,0,0,0,0,0,0,0,0,0,0]}],[{"header":{"parameterUnit":"kt","parameterCategory":2,"dx":1,"dy":1,"la1":30.253999710083008,"la2":30.299108505249023,"lo1":-89.0895004272461,"lo2":-89.04439544677734,"nx":28,"ny":28,"refTime":"2022-10-18T21:00:00:Z","depth":"0","parameterNumber":3,"parameterNumberName":"V-component_of_CURRENTS"},"data":[0.0869,0.1014,0.1078,0.1296,0.1391,0.1549,0.1649,0.1799,0.1916,0.2032,0.2021,0.1941,0.1332,-0.0671,-0.212,-0.2468,-0.2899,-0.3028,-0.3237,-0.2741,-0.2689,-0.264,-0.269,-0.315,-0.3151,-0.3951,-0.3959,-0.3965,0.0808,0.0887,0.1025,0.1163,0.1292,0.1313,0.1489,0.1584,0.1746,0.1872,0.1908,0.1589,0.0822,0.0049,-0.1065,-0.1694,-0.1951,-0.2066,-0.2291,-0.2361,-0.1579,-0.1589,-0.1821,-0.1821,-0.1821,-0.182,-0.182,-0.182,0.0701,0.0776,0.0875,0.0996,0.1101,0.1233,0.132,0.1431,0.156,0.1676,0.1626,0.16,0.099,0.0214,-0.0237,-0.1086,-0.1097,-0.1359,-0.1532,-0.1639,-0.1786,-0.0886,-0.1008,-0.1008,-0.1008,-0.1007,-0.1007,0,0.0604,0.0634,0.071,0.0835,0.0922,0.1013,0.1096,0.1186,0.1215,0.1277,0.1353,0.1311,0.0901,0.0494,-0.0068,-0.0383,-0.0992,-0.0784,-0.1103,-0.1413,-0.1563,-0.1724,-0.0817,-0.0895,-0.0894,-0.0894,-0.0893,-0.0893,0.0475,0.0538,0.062,0.0688,0.0708,0.078,0.0843,0.083,0.0911,0.0947,0.1019,0.089,0.0833,0.0389,-0.0042,-0.0455,-0.0748,-0.0748,-0.082,-0.1112,-0.1331,-0.1464,-0.1569,-0.0882,-0.0883,-0.0884,-0.0885,0,0.041,0.042,0.0517,0.0556,0.057,0.0636,0.0684,0.075,0.0715,0.0803,0.0799,0.0693,0.0523,0.0245,-0.0044,-0.0272,-0.0709,-0.0618,-0.0604,-0.0651,-0.1092,-0.1254,-0.1603,-0.1747,-0.0817,-0.0818,-0.0819,0,0.0298,0.0362,0.0378,0.0424,0.0514,0.049,0.0569,0.0545,0.0549,0.0619,0.0462,0.0492,0.0219,0.0094,-0.0141,-0.038,-0.0361,-0.0606,-0.0657,-0.0667,-0.0671,-0.0975,-0.1144,-0.0613,-0.0612,-0.0611,-0.061,0,0.0196,0.0244,0.0324,0.0335,0.0359,0.0386,0.039,0.0371,0.0401,0.0347,0.0358,0.0237,0.0199,0.0008,-0.0203,-0.0232,-0.0402,-0.0475,-0.0628,-0.0632,-0.0695,-0.0702,-0.1005,-0.0609,-0.0609,-0.0609,-0.0608,0,0.0088,0.012,0.0207,0.0242,0.0255,0.028,0.0308,0.0313,0.0269,0.0231,0.0174,0.01,0.0024,-0.0077,-0.0256,-0.0222,-0.036,-0.0464,-0.0472,-0.0519,-0.0587,-0.0689,-0.0693,-0.0999,-0.0582,-0.0581,-0.0581,0,-0.0004,0.0064,0.0039,0.0111,0.0149,0.0097,0.0114,0.0097,0.0059,0.0049,-0.005,-0.007,-0.0172,-0.0189,-0.0257,-0.0364,-0.0425,-0.0383,-0.0552,-0.0556,-0.0573,-0.056,-0.0581,-0.0678,-0.0571,-0.0572,-0.0573,0,-0.008,-0.008,-0.0073,-0.0047,-0.0069,-0.0052,-0.0046,-0.005,-0.0032,-0.0109,-0.0096,-0.0178,-0.0233,-0.0258,-0.0322,-0.0374,-0.0416,-0.0434,-0.0438,-0.0472,-0.0525,-0.0546,-0.0555,-0.0457,-0.0458,-0.0458,-0.0565,0,-0.0162,-0.0149,-0.0133,-0.013,-0.0131,-0.0114,-0.0152,-0.0163,-0.0203,-0.0237,-0.0263,-0.0343,-0.0377,-0.0405,-0.0444,-0.0451,-0.0481,-0.0518,-0.0546,-0.0519,-0.0572,-0.0577,-0.0534,-0.0536,-0.0537,-0.0538,0,0,-0.0236,-0.0214,-0.0261,-0.0241,-0.0238,-0.0303,-0.0267,-0.0296,-0.0338,-0.0343,-0.0384,-0.0451,-0.0497,-0.0499,-0.0496,-0.0525,-0.0562,-0.0512,-0.053,-0.0529,-0.0528,-0.0576,-0.058,-0.054,-0.0541,-0.0541,-0.0541,0,-0.0265,-0.0291,-0.0267,-0.0282,-0.0306,-0.0331,-0.0326,-0.0367,-0.0385,-0.04,-0.0448,-0.0482,-0.0521,-0.0549,-0.0567,-0.0542,-0.0593,-0.055,-0.0487,-0.0539,-0.0536,-0.0534,-0.058,-0.0583,-0.0544,-0.0544,-0.0544,0,-0.0321,-0.034,-0.0338,-0.036,-0.0383,-0.0373,-0.043,-0.0433,-0.0426,-0.05,-0.0501,-0.0547,-0.059,-0.0597,-0.0602,-0.0616,-0.0627,-0.0615,-0.061,-0.0592,-0.0647,-0.0643,-0.064,-0.0684,-0.0684,-0.0684,0,0,-0.0343,-0.034,-0.0378,-0.0369,-0.0377,-0.0423,-0.0435,-0.0456,-0.0486,-0.0498,-0.0534,-0.0569,-0.0593,-0.0603,-0.063,-0.0634,-0.0672,-0.0629,-0.0622,-0.0617,-0.0596,-0.0649,-0.0645,-0.0685,-0.0685,-0.0685,0,0,-0.0354,-0.0388,-0.041,-0.0399,-0.0423,-0.0469,-0.0466,-0.0495,-0.0521,-0.0522,-0.0573,-0.0582,-0.059,-0.0618,-0.062,-0.0632,-0.0663,-0.0664,-0.0602,-0.0595,-0.0589,-0.0556,-0.0658,0,0,0,0,0,-0.0404,-0.0383,-0.0403,-0.0407,-0.0446,-0.0461,-0.0469,-0.0504,-0.0524,-0.0517,-0.0554,-0.0578,-0.0629,-0.0632,-0.064,-0.0622,-0.0691,-0.069,-0.0689,-0.0612,-0.0604,-0.0597,0,0,0,0,0,0,-0.0406,-0.041,-0.0404,-0.0446,-0.0456,-0.0462,-0.0501,-0.051,-0.0524,-0.0528,-0.0572,-0.058,-0.0612,-0.063,-0.0637,-0.0619,-0.0656,-0.0691,-0.069,-0.0689,-0.0609,-0.0602,-0.0596,0,0,0,0,0,-0.0408,-0.0411,-0.0457,-0.0448,-0.0456,-0.0501,-0.0501,-0.0509,-0.052,-0.0568,-0.0576,-0.0543,-0.0611,-0.0618,-0.0635,-0.0615,-0.0651,-0.0654,-0.069,-0.0689,-0.0689,-0.0606,0,0,0,0,0,0,-0.0409,-0.0427,-0.046,-0.0465,-0.0447,-0.0501,-0.0508,-0.0508,-0.056,-0.0568,-0.0542,-0.0544,-0.0611,-0.0616,-0.0622,-0.0611,-0.0648,-0.065,-0.0651,-0.0689,-0.0689,-0.0688,0,0,0,0,0,0,-0.0426,-0.0431,-0.0463,-0.0459,-0.0464,-0.0501,-0.0507,-0.053,-0.056,-0.0531,-0.0535,-0.0542,-0.0597,-0.0615,-0.062,-0.0656,-0.0645,-0.0647,-0.0649,-0.065,-0.0689,-0.0688,0,0,0,0,0,0,-0.0429,-0.0433,-0.0458,-0.0462,-0.0466,-0.0526,-0.0523,-0.0558,-0.0563,-0.0528,-0.0564,-0.0564,-0.0595,-0.0601,-0.0618,-0.0652,-0.0655,-0.0645,-0.0647,-0.0648,-0.0648,0,0,0,0,0,0,0,-0.0432,-0.0387,-0.0429,-0.0464,-0.0468,-0.051,-0.0512,-0.0513,-0.0563,-0.0563,-0.0564,-0.0564,-0.0632,-0.0634,-0.0637,-0.0648,0,0,-0.0645,-0.0646,0,0,0,0,0,0,0,0,-0.0387,-0.0387,-0.0429,-0.043,-0.0431,-0.0511,-0.0512,-0.0513,-0.0563,-0.0563,-0.0564,-0.0564,-0.0633,-0.0635,-0.0637,0,0,0,0,0,0,0,0,0,0,0,0,0,0,0,-0.0429,-0.043,0,-0.0511,-0.0512,-0.0513,-0.0563,-0.0563,-0.0563,-0.0564,-0.0633,-0.0635,-0.0636,0,0,0,0,0,0,0,0,0,0,0,0,0,0,0,0,0,0,0,0,0,0,0,0,0,0,0,0,0,0,0,0,0,0,0,0,0,0,0,0,0,0,0,0,0,0,0,0,0,0,0,0,0,0,0,0,0,0,0,0,0,0,0,0,0,0,0,0,0]}]],[[{"header":{"parameterUnit":"kt","parameterCategory":2,"dx":1,"dy":1,"la1":30.253999710083008,"la2":30.299108505249023,"lo1":-89.0895004272461,"lo2":-89.04439544677734,"nx":28,"ny":28,"refTime":"2022-10-18T21:00:00:Z","depth":"2","parameterNumber":2,"parameterNumberName":"U-component_of_CURRENTS"},"data":[0.3177,0.3152,0.3194,0.3161,0.3223,0.3222,0.3267,0.3261,0.3361,0.3317,0.3334,0.3623,0.3798,0.3329,0.3315,0.3141,0.3267,0.3038,0.4044,0.389,0.3928,0.404,0.3843,0,0,0,0,0,0.328,0.3317,0.3377,0.3426,0.3458,0.3583,0.3709,0.3696,0.3736,0.3964,0.406,0.38,0.3786,0.3875,0.3758,0.3778,0.3678,0.3605,0.3423,0.3478,0.3524,0.3349,0.3008,0.3003,0.2998,0.2994,0,0,0.3457,0.3464,0.3536,0.3607,0.3692,0.3774,0.3794,0.3955,0.4064,0.422,0.448,0.4514,0.46,0.4515,0.4417,0.4369,0.4656,0.4402,0.4412,0.4428,0.431,0.4253,0.4219,0.4223,0.4227,0.423,0.4233,0,0.3561,0.3623,0.368,0.3758,0.3837,0.3927,0.4058,0.4127,0.4364,0.4497,0.4695,0.4797,0.5008,0.4879,0.4937,0.4883,0.4786,0.4718,0.5173,0.4327,0.4267,0.4241,0.4248,0.4255,0.426,0.4263,0.4266,0.4267,0.3672,0.3706,0.384,0.388,0.3935,0.4036,0.4107,0.4278,0.4372,0.4667,0.4732,0.4949,0.5034,0.5171,0.5147,0.5155,0.5167,0.482,0.4632,0.4973,0.4951,0.4935,0.492,0.4316,0.431,0.4305,0.4301,0,0.3723,0.3809,0.3876,0.401,0.4048,0.4102,0.4249,0.4326,0.4475,0.461,0.4661,0.4849,0.4991,0.5038,0.5118,0.5059,0.5088,0.5082,0.4748,0.47,0.4929,0.4913,0.5079,0.5079,0.5079,0.5079,0.5079,0,0.3807,0.385,0.3979,0.4003,0.4077,0.418,0.4265,0.434,0.4475,0.457,0.4651,0.4754,0.4803,0.4898,0.4889,0.4944,0.5,0.4871,0.4866,0.4566,0.4536,0.4787,0.4769,0.4922,0.4921,0.492,0.4919,0,0.383,0.3929,0.3988,0.4019,0.413,0.4181,0.4245,0.4348,0.4409,0.4526,0.4597,0.4677,0.4746,0.4776,0.4813,0.4758,0.4926,0.484,0.4819,0.4816,0.4548,0.4517,0.4917,0.4917,0.4916,0.4916,0.4915,0,0.3874,0.393,0.3995,0.4097,0.4119,0.416,0.4267,0.4315,0.4411,0.4453,0.4523,0.4547,0.4624,0.4564,0.4674,0.4626,0.4642,0.4647,0.4652,0.4596,0.4531,0.4377,0.4417,0.4694,0.4692,0.469,0.4688,0,0.3877,0.3945,0.3987,0.4049,0.4087,0.4138,0.4189,0.4246,0.4293,0.4358,0.438,0.4433,0.44,0.4429,0.446,0.4487,0.4534,0.4447,0.4542,0.4546,0.4508,0.4606,0.4276,0.4395,0.466,0.4663,0.4665,0,0.3869,0.3956,0.396,0.3999,0.4058,0.4083,0.4135,0.419,0.4241,0.4261,0.4329,0.4341,0.436,0.4364,0.4353,0.4382,0.4487,0.4362,0.4362,0.4443,0.462,0.4573,0.4587,0.4466,0.4469,0.4472,0.4643,0,0.3906,0.394,0.3957,0.4004,0.4034,0.4062,0.4097,0.4124,0.4146,0.4167,0.4223,0.4215,0.4248,0.4239,0.4224,0.4296,0.4302,0.4261,0.4239,0.4295,0.4359,0.4377,0.4148,0.4146,0.4145,0.4144,0,0,0.3884,0.3918,0.3941,0.3971,0.4002,0.402,0.405,0.4061,0.4085,0.4112,0.4099,0.4139,0.4127,0.4171,0.4185,0.4164,0.42,0.4169,0.4251,0.4263,0.4275,0.434,0.4358,0.4142,0.4142,0.4141,0.4141,0,0.3888,0.3912,0.3933,0.3956,0.3998,0.4008,0.4023,0.4043,0.4055,0.4079,0.4078,0.41,0.4097,0.4107,0.4108,0.4146,0.4158,0.414,0.4195,0.424,0.4253,0.4265,0.4332,0.4349,0.4138,0.4138,0.4138,0,0.388,0.3908,0.3919,0.3954,0.3969,0.3992,0.3989,0.4015,0.4037,0.4016,0.4042,0.4044,0.4035,0.4054,0.4063,0.4044,0.4122,0.4067,0.4072,0.4092,0.4137,0.4152,0.4165,0.4001,0.4,0.4,0,0,0.3883,0.3906,0.3934,0.3955,0.3969,0.3983,0.3994,0.4004,0.4014,0.4016,0.4017,0.4017,0.4026,0.4029,0.4029,0.4038,0.406,0.4053,0.4059,0.4065,0.4087,0.4134,0.4148,0.4,0.4,0.4,0,0,0.3878,0.3916,0.3928,0.3951,0.3972,0.398,0.3994,0.4,0.4003,0.401,0.4,0.4001,0.4027,0.4007,0.4,0.4025,0.3994,0.3995,0.4048,0.4056,0.4062,0.4093,0.398,0,0,0,0,0,0.39,0.3913,0.3924,0.3933,0.3958,0.3977,0.3978,0.399,0.3995,0.3999,0.4003,0.3992,0.4001,0.3995,0.3993,0.402,0.3991,0.3993,0.3994,0.4064,0.4073,0.408,0,0,0,0,0,0,0.3904,0.3912,0.3925,0.3936,0.3943,0.3975,0.3971,0.3973,0.3995,0.3996,0.3991,0.3991,0.398,0.3995,0.3993,0.402,0.398,0.3992,0.3993,0.3994,0.4067,0.4074,0.408,0,0,0,0,0,0.3907,0.3914,0.3955,0.3935,0.3941,0.3964,0.3971,0.3972,0.3981,0.3982,0.3982,0.3997,0.3979,0.3979,0.3994,0.4021,0.3981,0.3981,0.3993,0.3994,0.3994,0.4071,0,0,0,0,0,0,0.3909,0.3893,0.3956,0.3958,0.3943,0.3962,0.3965,0.3972,0.3965,0.3968,0.3986,0.3986,0.3979,0.3979,0.3978,0.4024,0.3982,0.3981,0.3981,0.3993,0.3994,0.3995,0,0,0,0,0,0,0.3891,0.3895,0.3957,0.3967,0.397,0.396,0.3963,0.3957,0.3964,0.3966,0.3968,0.3986,0.3989,0.3978,0.3978,0.3966,0.3983,0.3982,0.3982,0.3982,0.3994,0.3995,0,0,0,0,0,0,0.3892,0.3896,0.3965,0.3968,0.397,0.3986,0.3953,0.3978,0.3978,0.3965,0.398,0.3981,0.3989,0.3989,0.3978,0.3965,0.3966,0.3982,0.3982,0.3982,0.3982,0,0,0,0,0,0,0,0.3894,0.3872,0.3957,0.3968,0.397,0.3982,0.3981,0.398,0.3978,0.3979,0.398,0.398,0.3985,0.3985,0.3984,0.3965,0,0,0.3983,0.3982,0,0,0,0,0,0,0,0,0.3871,0.3872,0.3957,0.3958,0.3959,0.3982,0.3981,0.398,0.3978,0.3979,0.3979,0.398,0.3985,0.3985,0.3984,0,0,0,0,0,0,0,0,0,0,0,0,0,0,0,0.3957,0.3958,0,0.3981,0.3981,0.398,0.3978,0.3979,0.3979,0.398,0.3985,0.3985,0.3984,0,0,0,0,0,0,0,0,0,0,0,0,0,0,0,0,0,0,0,0,0,0,0,0,0,0,0,0,0,0,0,0,0,0,0,0,0,0,0,0,0,0,0,0,0,0,0,0,0,0,0,0,0,0,0,0,0,0,0,0,0,0,0,0,0,0,0,0,0]}],[{"header":{"parameterUnit":"kt","parameterCategory":2,"dx":1,"dy":1,"la1":30.253999710083008,"la2":30.299108505249023,"lo1":-89.0895004272461,"lo2":-89.04439544677734,"nx":28,"ny":28,"refTime":"2022-10-18T21:00:00:Z","depth":"2","parameterNumber":3,"parameterNumberName":"V-component_of_CURRENTS"},"data":[0.1012,0.1148,0.1208,0.1419,0.1512,0.1681,0.1782,0.1922,0.1994,0.204,0.1979,0.1789,0.1169,0.0636,0.002,-0.0395,-0.0477,-0.0489,-0.0387,-0.0241,-0.0228,-0.0641,-0.0581,0,0,0,0,0,0.0955,0.1029,0.1158,0.1289,0.1416,0.1435,0.1604,0.1696,0.1837,0.1894,0.1888,0.1486,0.0997,0.0496,-0.0239,-0.0687,-0.0727,-0.0821,-0.0764,-0.0756,-0.0749,-0.0719,-0.0826,-0.0827,-0.0828,-0.0829,0,0,0.0857,0.0927,0.1021,0.1133,0.1232,0.1358,0.1444,0.1542,0.1655,0.1743,0.1668,0.1567,0.1123,0.0421,-0.0053,-0.0545,-0.053,-0.0703,-0.0699,-0.0694,-0.0663,-0.0638,-0.0753,-0.0753,-0.0753,-0.0753,-0.0754,0,0.0772,0.0799,0.087,0.0987,0.1067,0.1153,0.1228,0.1312,0.1338,0.1387,0.144,0.1375,0.0964,0.0568,0.0028,-0.0246,-0.0491,-0.0576,-0.0528,-0.0547,-0.0518,-0.0551,-0.0542,-0.0616,-0.0615,-0.0615,-0.0615,-0.0614,0.0659,0.0716,0.0792,0.0855,0.0872,0.0935,0.0992,0.098,0.1055,0.1079,0.1144,0.1004,0.0923,0.0481,0.008,-0.0319,-0.0358,-0.055,-0.0601,-0.0544,-0.058,-0.0571,-0.0563,-0.0609,-0.061,-0.061,-0.0611,0,0.0603,0.0614,0.0702,0.0738,0.0749,0.0805,0.0848,0.0907,0.0871,0.0948,0.0942,0.0832,0.0654,0.0384,0.0101,-0.0113,-0.0356,-0.045,-0.0391,-0.0429,-0.0557,-0.055,-0.0645,-0.0647,-0.0648,-0.065,-0.0651,0,0.0508,0.0564,0.0581,0.0622,0.0699,0.0678,0.0744,0.0718,0.0717,0.0779,0.0627,0.0647,0.0384,0.0256,0.0033,-0.0206,-0.0185,-0.0418,-0.0465,-0.0433,-0.0433,-0.0407,-0.0405,-0.0415,-0.0415,-0.0414,-0.0413,0,0.0421,0.0465,0.0535,0.0546,0.0569,0.0587,0.0589,0.0564,0.059,0.0529,0.0536,0.0411,0.0369,0.0185,-0.002,-0.0041,-0.0219,-0.0277,-0.0431,-0.0435,-0.0453,-0.0457,-0.0412,-0.0412,-0.0412,-0.0411,-0.0411,0,0.0329,0.0358,0.0435,0.0468,0.048,0.0498,0.0517,0.0518,0.0467,0.0428,0.0366,0.0294,0.0212,0.0121,-0.0058,-0.0023,-0.0154,-0.0253,-0.026,-0.0308,-0.0364,-0.0429,-0.0441,-0.0362,-0.0362,-0.0361,-0.036,0,0.0251,0.0312,0.0293,0.0354,0.0389,0.034,0.0351,0.033,0.0288,0.027,0.0171,0.0146,0.005,0.003,-0.0041,-0.0143,-0.0206,-0.0159,-0.0318,-0.0322,-0.0347,-0.0353,-0.0328,-0.0425,-0.0349,-0.035,-0.0351,0,0.019,0.0195,0.02,0.0224,0.0202,0.0216,0.0214,0.0206,0.0216,0.0134,0.0137,0.0053,-0.0003,-0.0026,-0.0086,-0.014,-0.0193,-0.0192,-0.0196,-0.0233,-0.0305,-0.0335,-0.0346,-0.023,-0.023,-0.0231,-0.0342,0,0.0127,0.014,0.0152,0.0156,0.0152,0.0163,0.0129,0.0111,0.0067,0.0033,-0.0003,-0.0081,-0.0118,-0.0148,-0.0182,-0.02,-0.0225,-0.0255,-0.0276,-0.026,-0.0312,-0.0319,-0.0255,-0.0256,-0.0257,-0.0257,0,0,0.0067,0.0091,0.0051,0.0067,0.0068,0.0008,0.0038,0.0007,-0.0039,-0.005,-0.0091,-0.0163,-0.021,-0.0219,-0.022,-0.0247,-0.0281,-0.0235,-0.0264,-0.0264,-0.0265,-0.0313,-0.0319,-0.0259,-0.0259,-0.026,-0.026,0,0.005,0.0029,0.0049,0.0035,0.001,-0.0011,-0.0011,-0.0051,-0.0074,-0.0097,-0.0143,-0.0184,-0.0226,-0.0254,-0.0271,-0.0258,-0.0304,-0.0266,-0.0218,-0.027,-0.0269,-0.0269,-0.0316,-0.032,-0.0262,-0.0262,-0.0262,0,0.0009,-0.0006,-0.0004,-0.0021,-0.0044,-0.0036,-0.0088,-0.01,-0.0098,-0.0167,-0.0183,-0.0228,-0.0268,-0.0283,-0.0293,-0.0303,-0.0328,-0.0312,-0.0308,-0.0292,-0.0347,-0.0346,-0.0345,-0.0361,-0.0361,-0.0361,0,0,-0.0006,-0.0004,-0.0032,-0.0027,-0.0034,-0.0077,-0.0093,-0.0116,-0.0148,-0.0164,-0.0204,-0.0241,-0.0267,-0.0282,-0.031,-0.0322,-0.0356,-0.0322,-0.0317,-0.0313,-0.0295,-0.0348,-0.0347,-0.0362,-0.0362,-0.0362,0,0,-0.0015,-0.0037,-0.0057,-0.0047,-0.0071,-0.011,-0.0117,-0.0146,-0.0179,-0.0186,-0.0234,-0.0245,-0.0265,-0.029,-0.029,-0.0312,-0.0335,-0.0336,-0.029,-0.0284,-0.028,-0.025,-0.0322,0,0,0,0,0,-0.0049,-0.0032,-0.0049,-0.0052,-0.0085,-0.0101,-0.0109,-0.0148,-0.0172,-0.0172,-0.0213,-0.0236,-0.0298,-0.0299,-0.0308,-0.0299,-0.0366,-0.0365,-0.0364,-0.0309,-0.0303,-0.0298,0,0,0,0,0,0,-0.005,-0.0052,-0.005,-0.0084,-0.0093,-0.0101,-0.0137,-0.0148,-0.0172,-0.0177,-0.0229,-0.0237,-0.0267,-0.0297,-0.0304,-0.0295,-0.032,-0.0366,-0.0365,-0.0364,-0.0307,-0.0302,-0.0298,0,0,0,0,0,-0.0052,-0.0053,-0.0088,-0.0086,-0.0093,-0.0143,-0.0138,-0.0147,-0.0169,-0.0215,-0.0225,-0.0198,-0.0266,-0.0274,-0.0302,-0.0291,-0.0315,-0.0318,-0.0365,-0.0365,-0.0364,-0.0304,0,0,0,0,0,0,-0.0053,-0.007,-0.0092,-0.0097,-0.0089,-0.0144,-0.0151,-0.0146,-0.0206,-0.0216,-0.0185,-0.0188,-0.0265,-0.0272,-0.0278,-0.0287,-0.0311,-0.0314,-0.0315,-0.0365,-0.0364,-0.0364,0,0,0,0,0,0,-0.007,-0.0073,-0.0095,-0.0096,-0.0102,-0.0145,-0.0151,-0.0175,-0.0206,-0.0173,-0.0178,-0.0186,-0.0254,-0.027,-0.0275,-0.0312,-0.0308,-0.0311,-0.0312,-0.0313,-0.0365,-0.0364,0,0,0,0,0,0,-0.0073,-0.0076,-0.0095,-0.01,-0.0105,-0.0166,-0.0168,-0.0199,-0.0207,-0.017,-0.0209,-0.021,-0.0251,-0.0258,-0.0273,-0.0307,-0.0311,-0.0308,-0.031,-0.0311,-0.0312,0,0,0,0,0,0,0,-0.0075,-0.0034,-0.006,-0.0102,-0.0107,-0.0144,-0.0146,-0.0147,-0.0207,-0.0208,-0.0209,-0.0209,-0.0294,-0.0297,-0.0299,-0.0303,0,0,-0.0308,-0.0309,0,0,0,0,0,0,0,0,-0.0035,-0.0034,-0.0061,-0.0062,-0.0063,-0.0144,-0.0146,-0.0147,-0.0208,-0.0208,-0.0209,-0.0209,-0.0295,-0.0297,-0.0299,0,0,0,0,0,0,0,0,0,0,0,0,0,0,0,-0.0061,-0.0062,0,-0.0144,-0.0145,-0.0146,-0.0208,-0.0208,-0.0209,-0.0209,-0.0295,-0.0297,-0.0299,0,0,0,0,0,0,0,0,0,0,0,0,0,0,0,0,0,0,0,0,0,0,0,0,0,0,0,0,0,0,0,0,0,0,0,0,0,0,0,0,0,0,0,0,0,0,0,0,0,0,0,0,0,0,0,0,0,0,0,0,0,0,0,0,0,0,0,0,0]}]],[[{"header":{"parameterUnit":"kt","parameterCategory":2,"dx":1,"dy":1,"la1":30.253999710083008,"la2":30.299108505249023,"lo1":-89.0895004272461,"lo2":-89.04439544677734,"nx":28,"ny":28,"refTime":"2022-10-18T21:00:00:Z","depth":"4","parameterNumber":2,"parameterNumberName":"U-component_of_CURRENTS"},"data":[0.1604,0.1664,0.1686,0.17,0.1734,0.1824,0.1909,0.2038,0.2032,0.2256,0.2298,0.2477,0.2567,0.271,0.2678,0.2704,0.2634,0.2956,0.2949,0.2933,0.2948,0.2961,0.2884,0,0,0,0,0,0.1642,0.1664,0.1727,0.1814,0.1908,0.1985,0.2129,0.2219,0.243,0.2417,0.2538,0.2619,0.2691,0.2765,0.2718,0.2905,0.2943,0.2835,0.2808,0.2942,0.2958,0.2878,0,0,0,0,0,0,0.1696,0.1721,0.1833,0.1926,0.2043,0.2095,0.2189,0.2286,0.2387,0.2646,0.2658,0.2845,0.3017,0.2996,0.3006,0.3001,0.2942,0.2818,0.2839,0.2856,0.2771,0.269,0.2583,0,0,0,0,0,0.1748,0.1831,0.1905,0.2027,0.2145,0.2241,0.2393,0.2432,0.2645,0.2827,0.289,0.2947,0.3047,0.3091,0.3123,0.3088,0.3193,0.3132,0.3138,0.3054,0.3014,0.2993,0.2995,0.3019,0.3021,0.3022,0.3023,0,0.1816,0.1864,0.205,0.2109,0.2208,0.236,0.2448,0.2648,0.2719,0.2956,0.2979,0.3158,0.3244,0.3198,0.3283,0.3268,0.3219,0.3175,0.3085,0.304,0.3015,0.3013,0.301,0.3036,0.3035,0.3034,0.3033,0,0.1843,0.195,0.2049,0.2224,0.2291,0.2376,0.2578,0.2657,0.2835,0.2958,0.3025,0.3186,0.3283,0.3352,0.3404,0.3307,0.3278,0.3224,0.3351,0.3333,0.3038,0.3029,0.3057,0.3052,0.3048,0.3045,0.3042,0,0.191,0.1985,0.2143,0.2195,0.2305,0.2422,0.2559,0.2672,0.2825,0.2911,0.3051,0.3124,0.3249,0.3308,0.3298,0.3263,0.3363,0.3153,0.313,0.3237,0.3229,0.3204,0.3191,0.3313,0.3313,0.3313,0.3313,0,0.1924,0.2054,0.2138,0.2188,0.2332,0.2424,0.2517,0.2659,0.2739,0.2915,0.2997,0.3108,0.3203,0.3227,0.3264,0.3242,0.3326,0.3284,0.3134,0.3123,0.3197,0.3184,0.3312,0.3312,0.3312,0.3312,0.3312,0,0.1973,0.2024,0.213,0.2255,0.2297,0.2378,0.2534,0.2615,0.2756,0.284,0.2952,0.3005,0.3111,0.309,0.3182,0.3166,0.3162,0.3161,0.3162,0.2994,0.2931,0.3028,0.3143,0.3142,0.3141,0.314,0.3139,0,0.1956,0.2039,0.2093,0.2206,0.2269,0.237,0.245,0.2549,0.2646,0.2757,0.2825,0.2924,0.2932,0.2997,0.3033,0.3065,0.309,0.3048,0.306,0.306,0.2919,0.2992,0.3076,0.3121,0.3123,0.3125,0.3126,0,0.1929,0.2049,0.2069,0.2128,0.2233,0.2282,0.2385,0.2488,0.2568,0.2674,0.2771,0.2855,0.2902,0.292,0.2941,0.2973,0.3059,0.2962,0.2962,0.2974,0.3134,0.2988,0.2984,0.3065,0.3067,0.3069,0.3114,0,0.1954,0.2016,0.2048,0.2132,0.2187,0.2256,0.2336,0.2423,0.2505,0.2555,0.2675,0.2717,0.2793,0.2815,0.2813,0.29,0.2885,0.2863,0.2818,0.2893,0.29,0.291,0.2765,0.2763,0.2761,0.276,0,0,0.1921,0.1972,0.2022,0.2067,0.2118,0.2195,0.2255,0.2314,0.2416,0.2467,0.2497,0.2619,0.2643,0.2709,0.2752,0.275,0.2762,0.2755,0.2852,0.2863,0.2872,0.2883,0.2895,0.2757,0.2757,0.2756,0.2755,0,0.1911,0.1965,0.2001,0.2055,0.2134,0.217,0.2206,0.2294,0.2359,0.2441,0.247,0.2541,0.2603,0.263,0.2643,0.2724,0.2713,0.2746,0.2805,0.2838,0.285,0.2861,0.2875,0.2886,0.2752,0.2752,0.2752,0,0.1902,0.1926,0.1959,0.2021,0.2082,0.2137,0.2164,0.2239,0.2295,0.2305,0.2418,0.2452,0.2466,0.2535,0.2571,0.2546,0.2656,0.2621,0.2629,0.2627,0.2658,0.2673,0.2686,0.2517,0.2516,0.2516,0,0,0.189,0.1926,0.1986,0.2024,0.2062,0.213,0.2166,0.2215,0.2271,0.2312,0.2364,0.2409,0.2445,0.2478,0.2505,0.2552,0.2542,0.2595,0.2606,0.2616,0.2619,0.2652,0.2666,0.2514,0.2514,0.2514,0,0,0.1888,0.1947,0.1984,0.2019,0.2082,0.2129,0.2174,0.2216,0.229,0.2318,0.234,0.2353,0.2438,0.2429,0.2402,0.2508,0.2459,0.2464,0.2524,0.2538,0.2548,0.2549,0.2388,0,0,0,0,0,0.1917,0.1931,0.1964,0.1977,0.2052,0.2105,0.2118,0.2187,0.2227,0.2272,0.2323,0.2323,0.2425,0.24,0.2405,0.2465,0.2487,0.2492,0.2496,0.2584,0.2598,0.2611,0,0,0,0,0,0,0.1922,0.1936,0.1963,0.2005,0.2022,0.2104,0.213,0.2148,0.2226,0.2241,0.2311,0.2321,0.2326,0.2398,0.2402,0.246,0.2387,0.2489,0.2493,0.2497,0.2589,0.2601,0.2611,0,0,0,0,0,0.1926,0.1938,0.2048,0.2005,0.202,0.2106,0.2132,0.2149,0.2231,0.2245,0.2262,0.2291,0.2323,0.2332,0.24,0.2459,0.2384,0.2386,0.2492,0.2495,0.2498,0.2595,0,0,0,0,0,0,0.1929,0.1951,0.2053,0.2059,0.2029,0.2106,0.2123,0.2148,0.2234,0.2249,0.2218,0.2227,0.232,0.2328,0.2335,0.2461,0.2382,0.2384,0.2385,0.2494,0.2497,0.2499,0,0,0,0,0,0,0.1945,0.1956,0.2056,0.2082,0.2092,0.2106,0.2122,0.2127,0.2234,0.2203,0.2213,0.2221,0.231,0.2325,0.233,0.2335,0.2381,0.2382,0.2383,0.2384,0.2496,0.2498,0,0,0,0,0,0,0.1951,0.196,0.2081,0.2088,0.2097,0.2175,0.2112,0.2188,0.2253,0.2198,0.2261,0.2265,0.2304,0.2312,0.2327,0.2329,0.2333,0.2381,0.2382,0.2382,0.2383,0,0,0,0,0,0,0,0.1955,0.188,0.2013,0.2094,0.2102,0.2117,0.2119,0.2121,0.2254,0.2257,0.226,0.2263,0.2372,0.2374,0.2376,0.2323,0,0,0.238,0.2381,0,0,0,0,0,0,0,0,0.1877,0.1879,0.2013,0.2014,0.2015,0.2117,0.2119,0.212,0.2255,0.2257,0.226,0.2262,0.2373,0.2374,0.2375,0,0,0,0,0,0,0,0,0,0,0,0,0,0,0,0.2013,0.2014,0,0.2118,0.2119,0.212,0.2255,0.2257,0.2259,0.2261,0.2373,0.2374,0.2375,0,0,0,0,0,0,0,0,0,0,0,0,0,0,0,0,0,0,0,0,0,0,0,0,0,0,0,0,0,0,0,0,0,0,0,0,0,0,0,0,0,0,0,0,0,0,0,0,0,0,0,0,0,0,0,0,0,0,0,0,0,0,0,0,0,0,0,0,0]}],[{"header":{"parameterUnit":"kt","parameterCategory":2,"dx":1,"dy":1,"la1":30.253999710083008,"la2":30.299108505249023,"lo1":-89.0895004272461,"lo2":-89.04439544677734,"nx":28,"ny":28,"refTime":"2022-10-18T21:00:00:Z","depth":"4","parameterNumber":3,"parameterNumberName":"V-component_of_CURRENTS"},"data":[0.07,0.0771,0.0804,0.0917,0.0994,0.107,0.109,0.1077,0.1043,0.1013,0.0842,0.0753,0.0431,0.0602,0.011,0.0039,-0.003,-0.0423,-0.0428,-0.0514,-0.0508,-0.0503,-0.0406,0,0,0,0,0,0.0677,0.0729,0.0795,0.0877,0.0946,0.0998,0.1013,0.1016,0.1017,0.0981,0.0952,0.0765,0.0443,0.0288,0.0084,-0.0022,-0.0273,-0.0271,-0.0337,-0.051,-0.0504,-0.0411,0,0,0,0,0,0,0.0651,0.0684,0.0757,0.0824,0.0894,0.0943,0.0954,0.0971,0.0984,0.0941,0.0904,0.0692,0.0567,0.0245,0.0026,-0.0177,-0.022,-0.0271,-0.0277,-0.0274,-0.0167,-0.0089,-0.0187,0,0,0,0,0,0.0627,0.0661,0.0699,0.0782,0.0835,0.0882,0.0924,0.0945,0.0946,0.0931,0.0851,0.0679,0.0472,0.0217,-0.0016,-0.0222,-0.0354,-0.0436,-0.0433,-0.0384,-0.0347,-0.0357,-0.0341,-0.0479,-0.0478,-0.0478,-0.0478,0,0.0608,0.0636,0.0701,0.0739,0.0761,0.0805,0.0838,0.0842,0.086,0.0813,0.0808,0.0654,0.055,0.0216,0.0007,-0.0286,-0.0316,-0.0419,-0.0365,-0.0335,-0.035,-0.0335,-0.0321,-0.0472,-0.0473,-0.0473,-0.0474,0,0.0602,0.0625,0.0668,0.0703,0.0718,0.0745,0.0784,0.0798,0.0776,0.0774,0.0763,0.0641,0.0467,0.0279,0.0047,-0.0066,-0.0252,-0.0321,-0.02,-0.0219,-0.0319,-0.0306,-0.0464,-0.0466,-0.0467,-0.0469,-0.047,0,0.0593,0.0617,0.0654,0.067,0.0704,0.0701,0.0726,0.0705,0.0688,0.0692,0.0607,0.0569,0.04,0.0266,0.0127,-0.0065,-0.0073,-0.0183,-0.0215,-0.0104,-0.0093,-0.012,-0.0109,-0.0195,-0.0194,-0.0193,-0.0192,0,0.0583,0.0605,0.0638,0.0642,0.0656,0.0663,0.0667,0.0637,0.0639,0.0581,0.0572,0.0463,0.0418,0.028,0.0136,0.0153,-0.0059,-0.0054,-0.0165,-0.0167,-0.0109,-0.0101,-0.0191,-0.019,-0.019,-0.019,-0.0189,0,0.0565,0.0585,0.0612,0.0631,0.0633,0.0639,0.0632,0.0621,0.057,0.0549,0.0497,0.0453,0.0368,0.0346,0.0177,0.0229,0.0135,0.0061,0.0054,0.0033,0.0025,0.0027,-0.0038,-0.0036,-0.0034,-0.0032,-0.0031,0,0.056,0.0582,0.0582,0.0599,0.0608,0.059,0.0582,0.0561,0.0535,0.0501,0.044,0.0414,0.0383,0.0367,0.0299,0.0222,0.0148,0.0224,0.0068,0.0063,0.0058,-0.0007,0.0156,-0.0005,-0.0008,-0.0011,-0.0012,0,0.0551,0.0565,0.0568,0.0579,0.0569,0.0567,0.0552,0.0532,0.0524,0.0477,0.0452,0.0402,0.0376,0.0359,0.0326,0.0266,0.0182,0.0249,0.0246,0.019,0.0037,0.0025,0.0009,0.0166,0.0164,0.0163,0.0005,0,0.0545,0.0558,0.056,0.0562,0.0556,0.0553,0.0531,0.0513,0.0498,0.0476,0.0437,0.0397,0.0366,0.0344,0.0337,0.0281,0.0266,0.0263,0.026,0.0234,0.0168,0.0155,0.0316,0.0316,0.0315,0.0315,0,0,0.0537,0.0551,0.0543,0.0543,0.0543,0.0521,0.0522,0.05,0.047,0.0459,0.0451,0.0397,0.0377,0.0342,0.0333,0.0324,0.0285,0.0328,0.0254,0.0247,0.0241,0.0177,0.0164,0.0315,0.0315,0.0315,0.0315,0,0.0532,0.054,0.0548,0.0536,0.0525,0.0513,0.0512,0.0484,0.0468,0.0453,0.0434,0.0406,0.0386,0.0356,0.0344,0.0327,0.0292,0.032,0.0318,0.0255,0.0249,0.0243,0.0179,0.0168,0.0315,0.0315,0.0315,0,0.0521,0.0525,0.053,0.0524,0.0511,0.0503,0.0485,0.0474,0.0465,0.0448,0.043,0.0411,0.039,0.0368,0.0359,0.0358,0.0293,0.0333,0.0332,0.0336,0.0272,0.0265,0.0258,0.0338,0.0339,0.0339,0,0,0.0517,0.0527,0.0513,0.0521,0.0515,0.0493,0.0483,0.047,0.0454,0.0445,0.0427,0.041,0.0394,0.0385,0.0369,0.0353,0.0319,0.0337,0.0336,0.0335,0.0338,0.0274,0.0267,0.034,0.034,0.034,0,0,0.0508,0.0508,0.0507,0.0518,0.0499,0.0472,0.0467,0.0455,0.0438,0.0441,0.0423,0.042,0.0404,0.0393,0.0404,0.0361,0.0363,0.0361,0.0371,0.0369,0.0368,0.0377,0.0391,0,0,0,0,0,0.0499,0.051,0.0511,0.0511,0.0499,0.0477,0.0472,0.0452,0.0451,0.044,0.0431,0.0423,0.0389,0.0399,0.0396,0.0381,0.0349,0.0347,0.0346,0.0354,0.0353,0.0352,0,0,0,0,0,0,0.05,0.0501,0.051,0.0489,0.0486,0.0477,0.0468,0.0461,0.0451,0.0448,0.0425,0.0422,0.0409,0.04,0.0397,0.0382,0.0392,0.0348,0.0347,0.0345,0.0354,0.0353,0.0352,0,0,0,0,0,0.05,0.0501,0.0492,0.0487,0.0485,0.0462,0.0467,0.0462,0.0449,0.0432,0.0428,0.0436,0.0409,0.0406,0.0398,0.0384,0.0393,0.0392,0.0347,0.0346,0.0345,0.0353,0,0,0,0,0,0,0.05,0.0484,0.0491,0.0488,0.0488,0.046,0.0457,0.0463,0.0433,0.0429,0.0443,0.0442,0.0409,0.0407,0.0405,0.0384,0.0395,0.0394,0.0393,0.0346,0.0346,0.0345,0,0,0,0,0,0,0.0484,0.0483,0.0489,0.0492,0.0489,0.046,0.0457,0.0449,0.0433,0.0444,0.0443,0.0443,0.0421,0.0407,0.0406,0.0393,0.0396,0.0395,0.0394,0.0394,0.0346,0.0345,0,0,0,0,0,0,0.0482,0.0481,0.0492,0.049,0.0488,0.0455,0.0451,0.0443,0.0427,0.0446,0.0427,0.0427,0.0422,0.042,0.0406,0.0394,0.0393,0.0396,0.0395,0.0395,0.0394,0,0,0,0,0,0,0,0.0481,0.05,0.051,0.0488,0.0486,0.0466,0.0465,0.0464,0.0427,0.0427,0.0427,0.0427,0.04,0.04,0.0399,0.0395,0,0,0.0396,0.0395,0,0,0,0,0,0,0,0,0.0499,0.05,0.051,0.051,0.051,0.0466,0.0465,0.0464,0.0427,0.0427,0.0427,0.0427,0.04,0.0399,0.0399,0,0,0,0,0,0,0,0,0,0,0,0,0,0,0,0.051,0.051,0,0.0466,0.0465,0.0464,0.0427,0.0427,0.0427,0.0427,0.04,0.0399,0.0399,0,0,0,0,0,0,0,0,0,0,0,0,0,0,0,0,0,0,0,0,0,0,0,0,0,0,0,0,0,0,0,0,0,0,0,0,0,0,0,0,0,0,0,0,0,0,0,0,0,0,0,0,0,0,0,0,0,0,0,0,0,0,0,0,0,0,0,0,0]}]]]